Date String (YYYY-MM-DD hh:mm:ss) UTC,Instrument flags,absolute air pressure of the measurement (hPa),sample flow rate (lpm),inlet stack bypass flow (lpm),air temperature of the measurement (°C),ambient temperature measured by the external sensor (°C),aerosol sample conditioner tube jacket temperature (°C),OPC LED temperature (°C),internal box temperature (°C),relative humidity of the measurement (%),span deviation,mass concentration of particles derived from Lorenz-Mie calculation of OPC scattering (μg/m³),mass concentration of particles derived from Lorenz-Mie calculation of OPC scattering (μg/m³),mass concentration of particles derived from Lorenz-Mie calculation of OPC scattering (μg/m³)
DateTimeUTC,F1_M11,P_M11,Q1_M11,Q2_M11,T1_M11,T2_M11,T3_M11,T4_M11,T5_M11,U1_M11,ZSPAN_M11,X2_M11,X0_M11,X1_M11
2024-02-03 23:00:00,SystemResetWarning,0815.6,4.99,000.00,020.6,019.8,000.0,029.1,022.2,24.1,0000.0,0000.13,0000.18,0000.12
2024-02-03 23:01:00,SystemResetWarning,0815.6,5.00,000.00,020.6,019.8,000.0,029.1,022.2,24.2,0000.0,0000.11,0000.15,0000.09
2024-02-03 23:02:00,SystemResetWarning,0815.7,5.00,000.00,020.6,019.8,000.0,029.0,022.2,24.2,0000.0,0000.09,0000.12,0000.08
2024-02-03 23:03:00,SystemResetWarning,0815.6,5.01,000.00,020.6,019.8,000.0,029.0,022.1,24.2,0000.0,0000.09,0000.33,0000.08
2024-02-03 23:04:00,SystemResetWarning,0815.7,5.00,000.00,020.6,019.7,000.0,029.0,022.1,24.2,0000.0,0000.10,0000.48,0000.08
2024-02-03 23:05:00,SystemResetWarning,0815.7,5.00,000.00,020.5,019.7,000.0,029.0,022.1,24.3,0000.0,0000.14,0000.60,0000.10
2024-02-03 23:06:00,SystemResetWarning,0815.8,5.01,000.00,020.5,019.7,000.0,029.0,022.1,24.3,0000.0,0000.17,0000.67,0000.12
2024-02-03 23:07:00,SystemResetWarning,0815.8,5.00,000.00,020.5,019.7,000.0,029.0,022.1,24.3,0000.0,0000.23,0000.77,0000.15
2024-02-03 23:08:00,SystemResetWarning,0815.7,5.00,000.00,020.5,019.7,000.0,029.0,022.1,24.3,0000.0,0000.27,0000.83,0000.17
2024-02-03 23:09:00,SystemResetWarning,0815.6,4.99,000.00,020.5,019.7,000.0,028.9,022.1,24.4,0000.0,0000.30,0000.88,0000.21
2024-02-03 23:10:00,SystemResetWarning,0815.7,5.01,000.00,020.5,019.6,000.0,028.9,022.1,24.4,0000.0,0000.36,0000.96,0000.25
2024-02-03 23:11:00,SystemResetWarning,0815.7,5.01,000.00,020.4,019.6,000.0,028.9,022.0,24.5,0000.0,0000.46,0001.17,0000.31
2024-02-03 23:12:00,SystemResetWarning,0815.8,4.99,000.00,020.4,019.6,000.0,028.9,022.0,24.5,0000.0,0000.58,0001.40,0000.37
2024-02-03 23:13:00,SystemResetWarning,0815.8,4.99,000.00,020.4,019.6,000.0,028.9,022.0,24.5,0000.0,0000.73,0001.69,0000.46
2024-02-03 23:14:00,SystemResetWarning,0815.7,5.00,000.00,020.4,019.6,000.0,028.9,022.0,24.6,0000.0,0000.89,0001.95,0000.56
2024-02-03 23:15:00,SystemResetWarning,0815.8,5.02,000.00,020.4,019.5,000.0,028.9,022.0,24.6,0000.0,0001.12,0002.48,0000.73
2024-02-03 23:16:00,SystemResetWarning,0815.8,5.00,000.00,020.3,019.5,000.0,028.8,021.9,24.7,0000.0,0001.35,0002.85,0000.93
2024-02-03 23:17:00,SystemResetWarning,0815.9,4.99,000.00,020.3,019.5,000.0,028.8,021.9,24.7,0000.0,0001.58,0003.17,0001.14
2024-02-03 23:18:00,SystemResetWarning,0815.9,5.00,000.00,020.3,019.5,000.0,028.8,021.9,24.7,0000.0,0001.78,0003.42,0001.33
2024-02-03 23:19:00,SystemResetWarning,0815.9,5.01,000.00,020.3,019.5,000.0,028.8,021.9,24.7,0000.0,0002.00,0003.72,0001.52
2024-02-03 23:20:00,SystemResetWarning,0815.8,5.01,000.00,020.3,019.5,000.0,028.8,021.9,24.7,0000.0,0002.16,0003.91,0001.68
2024-02-03 23:21:00,SystemResetWarning,0815.9,5.00,000.00,020.3,019.5,000.0,028.8,021.9,24.8,0000.0,0002.32,0004.10,0001.82
2024-02-03 23:22:00,SystemResetWarning,0815.8,4.99,000.00,020.3,019.5,000.0,028.7,021.9,24.8,0000.0,0002.47,0004.26,0001.98
2024-02-03 23:23:00,SystemResetWarning,0815.9,5.00,000.00,020.3,019.5,000.0,028.7,021.9,24.8,0000.0,0002.60,0004.38,0002.13
2024-02-03 23:24:00,SystemResetWarning,0816.0,5.01,000.00,020.2,019.5,000.0,028.7,021.9,24.8,0000.0,0002.64,0004.32,0002.23
2024-02-03 23:25:00,SystemResetWarning,0816.0,5.01,000.00,020.2,019.5,000.0,028.7,021.9,24.9,0000.0,0002.66,0004.18,0002.29
2024-02-03 23:26:00,SystemResetWarning,0816.0,4.99,000.00,020.2,019.5,000.0,028.7,021.9,24.9,0000.0,0002.65,0003.77,0002.32
2024-02-03 23:27:00,SystemResetWarning,0816.0,4.99,000.00,020.2,019.5,000.0,028.7,021.9,24.9,0000.0,0002.60,0003.50,0002.32
2024-02-03 23:28:00,SystemResetWarning,0816.1,5.00,000.00,020.2,019.5,000.0,028.7,021.9,24.9,0000.0,0002.52,0003.33,0002.28
2024-02-03 23:29:00,SystemResetWarning,0816.1,5.01,000.00,020.2,019.5,000.0,028.7,021.9,24.9,0000.0,0002.45,0003.20,0002.24
2024-02-03 23:30:00,SystemResetWarning,0816.1,5.01,000.00,020.2,019.5,000.0,028.7,021.9,24.9,0000.0,0002.38,0003.05,0002.20
2024-02-03 23:31:00,SystemResetWarning,0816.1,4.99,000.00,020.2,019.5,000.0,028.7,021.9,24.9,0000.0,0002.36,0003.02,0002.20
2024-02-03 23:32:00,SystemResetWarning,0816.1,4.99,000.00,020.2,019.5,000.0,028.7,021.9,24.9,0000.0,0002.35,0003.02,0002.20
2024-02-03 23:33:00,SystemResetWarning,0816.1,5.00,000.00,020.2,019.5,000.0,028.7,021.9,24.9,0000.0,0002.32,0002.96,0002.18
2024-02-03 23:34:00,SystemResetWarning,0816.1,5.01,000.00,020.2,019.5,000.0,028.7,021.9,25.2,0000.0,0002.27,0002.83,0002.16
2024-02-03 23:35:00,SystemResetWarning,0816.1,5.01,000.00,020.2,019.5,000.0,028.7,021.9,26.4,0000.0,0002.28,0002.85,0002.16
2024-02-03 23:36:00,SystemResetWarning,0816.1,4.99,000.00,020.2,019.5,000.0,028.7,021.9,25.7,0000.0,0002.26,0002.83,0002.15
2024-02-03 23:37:00,SystemResetWarning,0816.1,4.99,000.00,020.2,019.5,000.0,028.6,021.9,25.3,0000.0,0002.23,0002.80,0002.12
2024-02-03 23:38:00,SystemResetWarning,0816.2,4.99,000.00,020.2,019.5,000.0,028.6,021.9,25.2,0000.0,0002.25,0002.84,0002.11
2024-02-03 23:39:00,SystemResetWarning,0816.2,5.01,000.00,020.2,019.5,000.0,028.6,021.9,25.1,0000.0,0002.26,0002.84,0002.11
2024-02-03 23:40:00,SystemResetWarning,0816.2,5.00,000.00,020.2,019.5,000.0,028.6,021.9,25.1,0000.0,0002.28,0002.88,0002.12
2024-02-03 23:41:00,SystemResetWarning,0816.2,5.00,000.00,020.2,019.5,000.0,028.6,021.9,25.1,0000.0,0002.27,0002.88,0002.11
2024-02-03 23:42:00,SystemResetWarning,0816.2,5.01,000.00,020.2,019.5,000.0,028.6,021.9,25.1,0000.0,0002.27,0002.89,0002.10
2024-02-03 23:43:00,SystemResetWarning,0816.2,4.99,000.00,020.2,019.5,000.0,028.6,021.9,25.1,0000.0,0002.26,0002.85,0002.10
2024-02-03 23:44:00,SystemResetWarning,0816.2,4.99,000.00,020.2,019.5,000.0,028.6,021.8,25.0,0000.0,0002.24,0002.82,0002.09
2024-02-03 23:45:00,SystemResetWarning,0816.2,5.00,000.00,020.2,019.5,000.0,028.6,021.8,25.0,0000.0,0002.22,0002.80,0002.08
2024-02-03 23:46:00,SystemResetWarning,0816.2,5.00,000.00,020.2,019.5,000.0,028.6,021.8,25.0,0000.0,0002.21,0002.79,0002.06
2024-02-03 23:47:00,SystemResetWarning,0816.2,5.01,000.00,020.2,019.5,000.0,028.6,021.8,25.0,0000.0,0002.22,0002.83,0002.06
2024-02-03 23:48:00,SystemResetWarning,0816.2,5.00,000.00,020.2,019.5,000.0,028.6,021.8,25.0,0000.0,0002.23,0002.89,0002.06
2024-02-03 23:49:00,SystemResetWarning,0816.2,5.00,000.00,020.2,019.5,000.0,028.6,021.8,25.0,0000.0,0002.18,0002.84,0002.04
2024-02-03 23:50:00,SystemResetWarning,0816.3,5.00,000.00,020.2,019.5,000.0,028.6,021.8,25.0,0000.0,0002.14,0002.80,0002.01
2024-02-03 23:51:00,SystemResetWarning,0816.2,4.99,000.00,020.2,019.5,000.0,028.6,021.8,25.0,0000.0,0002.11,0002.73,0001.98
2024-02-03 23:52:00,SystemResetWarning,0816.3,4.99,000.00,020.2,019.5,000.0,028.5,021.8,25.0,0000.0,0002.09,0002.74,0001.96
2024-02-03 23:53:00,SystemResetWarning,0816.3,5.01,000.00,020.2,019.5,000.0,028.5,021.8,25.0,0000.0,0002.07,0002.72,0001.94
2024-02-03 23:54:00,SystemResetWarning,0816.3,5.01,000.00,020.2,019.5,000.0,028.5,021.8,25.0,0000.0,0002.05,0002.71,0001.91
2024-02-03 23:55:00,SystemResetWarning,0816.3,5.00,000.00,020.2,019.5,000.0,028.5,021.8,25.0,0000.0,0002.04,0002.71,0001.90
2024-02-03 23:56:00,SystemResetWarning,0816.3,5.01,000.00,020.2,019.5,000.0,028.5,021.8,25.0,0000.0,0002.00,0002.64,0001.87
2024-02-03 23:57:00,SystemResetWarning,0816.4,4.99,000.00,020.2,019.5,000.0,028.5,021.8,25.0,0000.0,0001.96,0002.58,0001.83
2024-02-03 23:58:00,SystemResetWarning,0816.4,5.00,000.00,020.2,019.6,000.0,028.5,021.8,24.9,0000.0,0001.89,0002.48,0001.77
2024-02-03 23:59:00,SystemResetWarning,0816.4,5.00,000.00,020.2,019.6,000.0,028.5,021.8,25.0,0000.0,0001.81,0002.33,0001.71
